Norwood, MA

10:49 PM EDT on May 22, 2017 (GMT -0400)
Norwood Memorial

Weather History for KOWD - November, 2013

Change the Weather History Date:

Thursday, November 7, 2013

  Actual Average Record
Temperature  
Mean Temperature 55 °F -  
Max Temperature 69 °F 51 °F 69 °F (2013)
Min Temperature 41 °F 31 °F 19 °F (2002)
Degree Days  
Heating Degree Days 10    
Growing Degree Days 5 (Base 50)    
Moisture  
Dew Point 50 °F    
Average Humidity 80    
Maximum Humidity 90    
Minimum Humidity 60    
Precipitation  
Precipitation 0.27 in - - ()
Sea Level Pressure  
Sea Level Pressure 29.81 in    
Wind  
Wind Speed 9 mph (WSW)    
Max Wind Speed 16 mph    
Max Gust Speed 30 mph    
Visibility 9 miles    
Events Rain    
Averages and records for this station are not official NWS values.
T = Trace of Precipitation, MM = Missing Value Source: NWS Daily Summary

Daily Weather History Graph

Daily Weather History Graph

Search for Another Location

Airport or City:

Trip Planner

Search our weather history database for the weather conditions in past years. The results will help you decide how hot, cold, wet, or windy it might be!

Date:

Astronomy

Nov. 07, 2013 Rise Set
Actual Time 6:25 AM EST 4:30 PM EST
Civil Twilight 5:55 AM EST 5:00 PM EST
Nautical Twilight 5:22 AM EST 5:33 PM EST
Astronomical Twilight 4:49 AM EST 6:06 PM EST
Moon 10:32 AM EST (11/7) 8:38 PM EST (11/7)
Length of Visible Light 11h 04m
Length of Day
10h 05m
Waxing Crescent, 22% of the Moon is Illuminated
Nov 7
Waxing Crescent
Nov 10
First Quarter
Nov 17
Full
Nov 25
Last Quarter
Dec 2
New

Hourly Weather History & Observations

Time (EST) Temp. Windchill Dew Point Humidity Pressure Visibility Wind Dir Wind Speed Gust Speed Precip Events Conditions
12:53 AM 53.1 °F - 48.9 °F 86% 30.04 in 10.0 mi SSW 6.9 mph - N/A   Clear
1:53 AM 53.1 °F - 48.9 °F 86% 30.01 in 10.0 mi South 5.8 mph - N/A   Clear
2:53 AM 53.1 °F - 50.0 °F 89% 29.96 in 10.0 mi South 8.1 mph - N/A   Clear
3:53 AM 55.0 °F - 52.0 °F 89% 29.94 in 10.0 mi South 3.5 mph - N/A   Mostly Cloudy
4:38 AM 57.2 °F - 53.6 °F 88% 29.92 in 10.0 mi SSW 10.4 mph - N/A   Overcast
4:53 AM 59.0 °F - 55.0 °F 87% 29.91 in 10.0 mi SSW 9.2 mph - N/A   Overcast
5:53 AM 60.1 °F - 55.9 °F 86% 29.86 in 10.0 mi South 15.0 mph 20.7 mph N/A   Overcast
6:53 AM 60.1 °F - 55.9 °F 86% 29.84 in 10.0 mi South 10.4 mph - N/A   Overcast
7:53 AM 61.0 °F - 57.9 °F 90% 29.84 in 3.0 mi SW 8.1 mph 17.3 mph N/A   Overcast
8:21 AM 62.6 °F - 57.2 °F 82% 29.82 in 10.0 mi SW 8.1 mph - N/A   Overcast
8:53 AM 63.0 °F - 57.0 °F 81% 29.80 in 10.0 mi SSW 16.1 mph 20.7 mph N/A   Mostly Cloudy
9:29 AM 66.2 °F - 55.4 °F 68% 29.78 in 10.0 mi SW 11.5 mph 27.6 mph N/A   Mostly Cloudy
9:53 AM 66.9 °F - 55.0 °F 66% 29.78 in 10.0 mi SW 16.1 mph 25.3 mph N/A   Overcast
10:14 AM 69.8 °F - 55.4 °F 60% 29.77 in 10.0 mi WSW 16.1 mph 27.6 mph N/A   Overcast
10:53 AM 68.0 °F - 54.0 °F 61% 29.74 in 10.0 mi West 16.1 mph 29.9 mph N/A   Overcast
11:53 AM 64.9 °F - 54.0 °F 68% 29.71 in 9.0 mi West 13.8 mph 24.2 mph N/A   Overcast
12:53 PM 61.0 °F - 57.0 °F 87% 29.70 in 4.0 mi West 3.5 mph - 0.07 in Rain Light Rain
1:53 PM 57.9 °F - 54.0 °F 87% 29.70 in 5.0 mi WSW 6.9 mph - 0.08 in Rain Light Rain
2:53 PM 55.9 °F - 52.0 °F 87% 29.70 in 10.0 mi WNW 12.7 mph - 0.06 in Rain Light Rain
3:21 PM 55.4 °F - 50.0 °F 82% 29.71 in 10.0 mi WNW 9.2 mph - 0.00 in   Overcast
3:53 PM 53.1 °F - 48.0 °F 83% 29.73 in 8.0 mi WNW 12.7 mph - 0.01 in   Overcast
4:53 PM 51.1 °F - 46.9 °F 86% 29.73 in 10.0 mi NW 3.5 mph - 0.02 in Rain Light Rain
5:53 PM 48.9 °F - 44.1 °F 83% 29.73 in 10.0 mi WNW 8.1 mph - 0.02 in Rain Light Rain
6:53 PM 46.9 °F - 43.0 °F 86% 29.75 in 10.0 mi West 8.1 mph - 0.01 in   Scattered Clouds
7:53 PM 45.0 °F 41.8 °F 41.0 °F 86% 29.78 in 10.0 mi West 5.8 mph - N/A   Clear
8:53 PM 45.0 °F 40.6 °F 39.0 °F 80% 29.79 in 10.0 mi NW 8.1 mph - N/A   Scattered Clouds
9:53 PM 44.1 °F 39.5 °F 34.0 °F 68% 29.81 in 10.0 mi NW 8.1 mph - N/A   Clear
10:53 PM 41.0 °F 37.1 °F 32.0 °F 70% 29.82 in 10.0 mi NW 5.8 mph - N/A   Clear
11:53 PM 41.0 °F 36.4 °F 30.9 °F 67% 29.82 in 10.0 mi WNW 6.9 mph - N/A   Clear